This is the latest recevied weather packets stored in our database for station/object LZ1BAB-WX. If no packets are shown the sender has not sent any weather packets the latest 1 day(s).
| Time | Temp. | Humidity | Pressure | Rain* | Wind** | Luminosity | Snow |
|---|---|---|---|---|---|---|---|
| 1778097549 | 15° C | 70% | 1017.4 hPa | 0 mm | - | 0 W/m² | - |
| 1778097307 | 15° C | 70% | 1017.3 hPa | 0 mm | - | 0 W/m² | - |
| 1778096828 | 15° C | 70% | 1017.5 hPa | 0 mm | - | 0 W/m² | - |
| 1778096348 | 15° C | 68% | 1017.1 hPa | 0 mm | - | 0 W/m² | - |
| 1778096228 | 15.56° C | 69% | 1017.3 hPa | 0 mm | - | 0 W/m² | - |
| 1778096108 | 15.56° C | 68% | 1017.2 hPa | 0 mm | - | 0 W/m² | - |
| 1778095628 | 15.56° C | 68% | 1017.2 hPa | 0 mm | - | 0 W/m² | - |
| 1778095507 | 15.56° C | 68% | 1017.4 hPa | 0 mm | - | 0 W/m² | - |
| 1778094188 | 16.11° C | 67% | 1017.1 hPa | 0 mm | - | 0 W/m² | - |
| 1778092868 | 16.67° C | 66% | 1016.6 hPa | 0 mm | - | 0 W/m² | - |
| 1778092388 | 16.67° C | 66% | 1016.3 hPa | 0 mm | - | 0 W/m² | - |
| 1778092028 | 17.22° C | 66% | 1016.6 hPa | 0 mm | - | 0 W/m² | - |
| 1778091908 | 17.22° C | 66% | 1016.4 hPa | 0 mm | - | 0 W/m² | - |
| 1778091788 | 17.22° C | 65% | 1016.3 hPa | 0 mm | - | 0 W/m² | - |
| 1778091428 | 17.22° C | 66% | 1016.1 hPa | 0 mm | - | 0 W/m² | - |
| 1778090468 | 17.78° C | 64% | 1016 hPa | 0 mm | - | 0 W/m² | - |
| 1778089865 | 17.78° C | 64% | 1015.8 hPa | 0 mm | - | 0 W/m² | - |
| 1778089625 | 18.33° C | 63% | 1015.7 hPa | 0 mm | - | 0 W/m² | - |
| 1778089266 | 18.33° C | 63% | 1015.5 hPa | 0 mm | - | 0 W/m² | - |
| 1778089146 | 18.33° C | 63% | 1015.6 hPa | 0 mm | - | 0 W/m² | - |
| 1778088905 | 18.89° C | 62% | 1015.4 hPa | 0 mm | - | 0 W/m² | - |
| 1778088667 | 18.89° C | 61% | 1015.4 hPa | 0 mm | - | 0 W/m² | - |
| 1778088546 | 18.89° C | 61% | 1015.3 hPa | 0 mm | - | 0 W/m² | - |
| 1778088306 | 19.44° C | 61% | 1015.3 hPa | 0 mm | - | 2 W/m² | - |
| 1778088186 | 19.44° C | 61% | 1015.4 hPa | 0 mm | - | 2 W/m² | - |
* Rain latest hour (hover to see other rain measurements)
** Current wind speed in m/s (hover to see current wind gust speed)